Location: Arbon
(43.0005°N, 0.7472°E)
Time: 17:07:17
(UTC+00:00)

Okean 2 Rocket - Pass Details

Date: 07 August 2020
Orbit: 616 x 642 km, 82.5° (Epoch: 22 September)

Event Time Altitude Azimuth Distance (km) Brightness Sun altitude
Exits shadow 00:41:47 35° 45° (NE) 1,020 4.5 -30.0°
Drops below altitude 10° 00:44:43 10° 19° (NNE) 2,027 6.6 -29.9°
Sets 00:47:02 0° 14° (NNE) 2,944 7.7 -29.8°
